Location: C.E.K. Mees Observatory
(42.7003°N, 77.4088°W)
Time: 07:08:49
(UTC-04:00)

Tiangong 2 - Pass Details

Date: 15 October 2017
Orbit: 388 x 391 km, 42.8° (Epoch: 24 October)

Event Time Altitude Azimuth Distance (km) Brightness Sun altitude
Exits shadow 05:35:47 72° 77° (ENE) 412 1.2 -20.5°
Drops below altitude 10° 05:38:42 10° 89° (E) 1,419 5.1 -19.9°
Sets 05:40:47 0° 90° (E) 2,275 6.6 -19.5°
